Location: Huppendorf
(49.9333°N, 11.1500°E)
Time: 18:45:01
(UTC+00:00)

Cosmos 540 Rocket - Pass Details

Date: 27 February 2020
Orbit: 739 x 754 km, 74.1° (Epoch: 29 March)

Event Time Altitude Azimuth Distance (km) Brightness Sun altitude
Rises 19:27:23 0° 207° (SSW) 3,172 6.8 -25.3°
Reaches altitude 10° 19:29:44 10° 210° (SSW) 2,255 6.0 -25.7°
Maximum altitude 19:34:50 74° 295° (WNW) 783 3.6 -26.4°
Drops below altitude 10° 19:40:00 10° 21° (NNE) 2,281 5.9 -27.2°
Sets 19:42:23 0° 23° (NNE) 3,211 6.7 -27.6°
